Weather in Zarechny

Russia / Republic of Tatarstan     54°30′01″N   50°22′59″E
temp.,
°C
wind,
m/s
gust,
m/s
humid.,
%
clouds,
%
prec.,
mm/h
press.,
hPa
HPBL,
m
21 april, wed
wed2100:00+4se61344100 0.0 1028479
03:00+3se71646100 0.0 1027617
06:00+3se81646100 0.0 1027722
09:00+5sse81645100 0.1 1026830
12:00+6se91540100 0.1 1025968
15:00+5sse81659100 0.2 1026957
18:00+3sse91984100 3.1 1025790
21:00+4sse81691100 5.1 1024932
22 april, thu
thu2200:00+4s81492100 0.8 1024770
03:00+4s71392100 1.8 1024630
06:00+5s61193100 0.1 1025570
09:00+5s61088100 0.1 1026558
12:00+7s5980100 0.0 1027701
15:00+7sse6984100 0.0 1027670
18:00+5sse5986100 0.0 1027461
21:00+4sse489066 0.0 1027385
23 april, fri
fri2300:00+3sse389627 0.0 1027246
03:00+2sse379755 0.0 1027177
06:00+4sse4588100 0.0 1028413
09:00+7sse347965 0.0 1027536
12:00+11se33635 0.0 1026764
15:00+13ese4459100 0.0 10251226
18:00+10e3670100 0.0 1024219
21:00+7ene3782100 0.0 1023139
24 april, sat
sat2400:00+6ene3790100 0.0 1021157
03:00+7e2496100 0.0 1019108
06:00+7e3794100 0.2 1018449
09:00+7ene3793100 0.9 1016429
12:00+7e2491100 0.7 1015220
15:00+7e2491100 1.1 1014300
18:00+7sse2392100 0.0 1014128
21:00+6sse2493100 0.1 1013153
25 april, sun
sun2500:00+5se37946 0.0 1012156
03:00+5sse41095100 0.2 1009325
06:00+7wsw7118895 1.6 1010719
09:00+8w79595 1.6 10121203
12:00+11sw694598 0.0 10132315
15:00+11sw685289 0.4 10141635
18:00+9sw355913 0.4 1014126
21:00+6ssw387597 0.4 1015173